TimeMST,TemperatureF,Dew PointF,Humidity,Sea Level PressureIn,VisibilityMPH,Wind Direction,Wind SpeedMPH,Gust SpeedMPH,PrecipitationIn,Events,Conditions,WindDirDegrees,DateUTC
12:53 AM,19.9,10.0,65,30.06,10.0,WSW,11.5,-,N/A,,Overcast,240,2013-02-18 07:53:00
1:44 AM,19.4,10.4,68,29.95,10.0,West,10.4,-,N/A,,Overcast,260,2013-02-18 08:44:00
1:53 AM,21.0,10.9,65,30.06,10.0,West,11.5,-,N/A,,Overcast,260,2013-02-18 08:53:00
2:53 AM,19.9,12.0,71,30.05,9.0,WSW,9.2,-,0.00,Snow,Light Snow,250,2013-02-18 09:53:00
3:53 AM,19.0,12.9,77,30.09,10.0,WSW,12.7,-,0.00,,Overcast,240,2013-02-18 10:53:00
5:11 AM,19.4,14.0,80,30.02,10.0,WSW,8.1,-,N/A,,Overcast,240,2013-02-18 12:11:00
5:22 AM,19.4,14.0,80,30.02,9.0,WSW,5.8,-,0.00,Snow,Light Snow,250,2013-02-18 12:22:00
5:53 AM,19.0,14.0,81,30.15,9.0,West,4.6,-,0.00,Snow,Light Snow,260,2013-02-18 12:53:00
6:53 AM,19.0,12.9,77,30.17,10.0,Calm,Calm,-,0.00,,Overcast,0,2013-02-18 13:53:00
7:53 AM,19.9,12.0,71,30.19,8.0,West,4.6,-,0.00,Snow,Light Snow,260,2013-02-18 14:53:00
8:53 AM,21.9,12.9,68,30.20,10.0,Calm,Calm,-,0.00,,Overcast,0,2013-02-18 15:53:00
9:53 AM,21.9,12.0,66,30.22,10.0,West,5.8,-,N/A,,Scattered Clouds,260,2013-02-18 16:53:00
10:53 AM,25.0,10.9,55,30.22,10.0,West,10.4,-,N/A,,Clear,260,2013-02-18 17:53:00
11:53 AM,26.1,10.9,53,30.22,10.0,West,11.5,-,N/A,,Clear,280,2013-02-18 18:53:00
12:53 PM,27.0,10.0,49,30.21,10.0,West,11.5,-,N/A,,Clear,280,2013-02-18 19:53:00
1:53 PM,28.0,10.0,47,30.19,10.0,West,10.4,-,N/A,,Clear,270,2013-02-18 20:53:00
2:53 PM,28.0,9.0,45,30.20,10.0,West,4.6,-,N/A,,Clear,270,2013-02-18 21:53:00
3:53 PM,26.1,9.0,49,30.22,10.0,South,3.5,-,N/A,,Clear,180,2013-02-18 22:53:00
4:53 PM,21.9,9.0,58,30.23,10.0,ESE,3.5,-,N/A,,Clear,120,2013-02-18 23:53:00
5:53 PM,21.9,8.1,55,30.23,10.0,SE,5.8,-,N/A,,Clear,130,2013-02-19 00:53:00
6:53 PM,19.9,6.1,55,30.24,10.0,ENE,3.5,-,N/A,,Clear,70,2013-02-19 01:53:00
7:53 PM,19.9,5.0,52,30.25,10.0,Variable,3.5,-,N/A,,Clear,0,2013-02-19 02:53:00
8:53 PM,15.1,3.9,61,30.26,10.0,Calm,Calm,-,N/A,,Clear,0,2013-02-19 03:53:00
9:53 PM,12.0,1.9,64,30.27,10.0,Calm,Calm,-,N/A,,Clear,0,2013-02-19 04:53:00
10:53 PM,18.0,3.9,54,30.21,10.0,East,11.5,-,N/A,,Clear,90,2013-02-19 05:53:00
11:53 PM,17.1,3.9,56,30.20,10.0,ENE,15.0,19.6,N/A,,Clear,60,2013-02-19 06:53:00